Volver al catálogo

IRIDIUM 33 DEB

ActivoPO
NORAD 34896·DEBRIS·🇺🇸 United States

Lanzado Sep 14, 1997 desde Baikonur Cosmodrome

Loading…

Próximos Pases (próximas 24 horas)

TLE

ActualizadoSource: Space-Track

Época: Sep 14, 2026, 14:15 UTC

1 34896U 97051MY  26257.59410998  .00003256  00000-0  55413-3 0  9996
2 34896  86.3325 202.7032 0025665 357.5910 129.4602 14.68596291916651

Sigue IRIDIUM 33 DEB en tiempo real con AllMySat

Download on the App Store